Volver al catálogo

DELTA 1 DEB

ActivoSSO
NORAD 7073·DEBRIS·🇺🇸 United States

Lanzado Nov 6, 1973 desde Vandenberg Space Force Base

Loading…

Próximos Pases (próximas 24 horas)

TLE

ActualizadoSource: Space-Track

Época: Sep 14, 2026, 08:25 UTC

1 07073U 73086BR  26257.35102940 -.00000047  00000-0 -10639-4 0  9993
2 07073 102.5295 224.0692 0063679 218.9643 309.5936 12.28475604369824

Sigue DELTA 1 DEB en tiempo real con AllMySat

Download on the App Store